Location: Augsburg
(48.3836°N, 10.8929°E)
Time: 17:16:40
(UTC+02:00)

ISS - Pass Details

Date: 23 May 2021
Orbit: 417 x 422 km, 51.6° (Epoch: 13 June)

Event Time Altitude Azimuth Distance (km) Brightness Sun altitude
Rises 00:33:45 0° 292° (WNW) 2,370 0.5 -20.5°
Reaches altitude 10° 00:35:51 10° 289° (WNW) 1,505 -0.6 -20.5°
Enters shadow 00:38:18 42° 271° (W) 608 -3.0 -20.6°
